Pagina principale
METAR-TAF:

METAR-TAF

Aeroporti :

Monte Scuro, Italia

latitudine: 39-20N, longitudine: 016-24E, altezza: 1710 m

Osservazione

Il bollettino è stato emesso 38 minuti fa, alle 11:55 UTC
Vento 3 kt da direzioni variabili
Temperature 3°C
Umidità 81%
Pressione 1010 hPa
Visibilità 10 km o più
Poco nuvoloso ad un'altezza di 600 ft
Nuvoloso ad un'altezza di 2000 ft

METAR: LIBQ 211155Z VRB03KT 9999 FEW006 BKN020 03/00 Q1010 RMK OVC MON LIB VAL NIL VIS MIN 9999

Ora: 13:33 (12:33 UTC)


TAF: mancante

Osservazioni e previsioni meteorologiche di più di 4000 aeroporti (messaggi METAR e TAF).

Le stazioni disponibili sono rappresentate dai dischi gialli e rossi sulla carta.

Puntare il mouse per vedere il nome della stazione.

Clicca sopra per visualizzare le osservazioni e previsioni meteorologiche.

Per cambiare la mappa : fare clic sui pulsanti verdi con una croce nera per ingrandire, il pulsante verde con un trattino per diminuire, o sulla freccia verde per le mappe adiacenti.


METAR-TAF: